Year,Month,Day,Hour,Minute,Value (Times are PST for temperature in C)
2016,08,16,00,00,18.00
2016,08,16,00,01,18.00
2016,08,16,00,02,18.00
2016,08,16,00,03,18.00
2016,08,16,00,04,18.00
2016,08,16,00,05,18.00
2016,08,16,00,06,17.90
2016,08,16,00,07,17.90
2016,08,16,00,08,17.90
2016,08,16,00,09,17.90
2016,08,16,00,10,17.90
2016,08,16,00,11,17.90
2016,08,16,00,12,17.90
2016,08,16,00,13,17.90
2016,08,16,00,14,17.90
2016,08,16,00,15,17.90
2016,08,16,00,16,17.80
2016,08,16,00,17,17.90
2016,08,16,00,18,17.90
2016,08,16,00,19,17.80
2016,08,16,00,20,17.90
2016,08,16,00,21,17.90
2016,08,16,00,22,17.90
2016,08,16,00,23,17.90
2016,08,16,00,24,17.90
2016,08,16,00,25,17.80
2016,08,16,00,26,17.80
2016,08,16,00,27,17.80
2016,08,16,00,28,17.80
2016,08,16,00,29,17.80
2016,08,16,00,30,17.80
2016,08,16,00,31,17.80
2016,08,16,00,32,17.80
2016,08,16,00,33,17.80
2016,08,16,00,34,17.70
2016,08,16,00,35,17.70
2016,08,16,00,36,17.70
2016,08,16,00,37,17.70
2016,08,16,00,38,17.70
2016,08,16,00,39,17.60
2016,08,16,00,40,17.60
2016,08,16,00,41,17.60
2016,08,16,00,42,17.60
2016,08,16,00,43,17.60
2016,08,16,00,44,17.50
2016,08,16,00,45,17.50
2016,08,16,00,46,17.50
2016,08,16,00,47,17.50
2016,08,16,00,48,17.50
2016,08,16,00,49,17.40
2016,08,16,00,50,17.40
2016,08,16,00,51,17.40
2016,08,16,00,52,17.40
2016,08,16,00,53,17.40
2016,08,16,00,54,17.40
2016,08,16,00,55,17.40
2016,08,16,00,56,17.30
2016,08,16,00,57,17.30
2016,08,16,00,58,17.30
2016,08,16,00,59,17.30
2016,08,16,01,00,17.30
2016,08,16,01,01,17.30
2016,08,16,01,02,17.30
2016,08,16,01,03,17.30
2016,08,16,01,04,17.30
2016,08,16,01,05,17.30
2016,08,16,01,06,17.30
2016,08,16,01,07,17.30
2016,08,16,01,08,17.30
2016,08,16,01,09,17.30
2016,08,16,01,10,17.30
2016,08,16,01,11,17.30
2016,08,16,01,12,17.30
2016,08,16,01,13,17.30
2016,08,16,01,14,17.30
2016,08,16,01,15,17.30
2016,08,16,01,16,17.30
2016,08,16,01,17,17.30
2016,08,16,01,18,17.30
2016,08,16,01,19,17.30
2016,08,16,01,20,17.30
2016,08,16,01,21,17.30
2016,08,16,01,22,17.30
2016,08,16,01,23,17.30
2016,08,16,01,24,17.30
2016,08,16,01,25,17.30
2016,08,16,01,26,17.30
2016,08,16,01,27,17.30
2016,08,16,01,28,17.30
2016,08,16,01,29,17.30
2016,08,16,01,30,17.20
2016,08,16,01,31,17.20
2016,08,16,01,32,17.20
2016,08,16,01,33,17.20
2016,08,16,01,34,17.20
2016,08,16,01,35,17.20
2016,08,16,01,36,17.20
2016,08,16,01,37,17.20
2016,08,16,01,38,17.20
2016,08,16,01,39,17.20
2016,08,16,01,40,17.20
2016,08,16,01,41,17.20
2016,08,16,01,42,17.20
2016,08,16,01,43,17.20
2016,08,16,01,44,17.20
2016,08,16,01,45,17.10
2016,08,16,01,46,17.10
2016,08,16,01,47,17.10
2016,08,16,01,48,17.10
2016,08,16,01,49,17.10
2016,08,16,01,50,17.10
2016,08,16,01,51,17.10
2016,08,16,01,52,17.10
2016,08,16,01,53,17.10
2016,08,16,01,54,17.10
2016,08,16,01,55,17.10
2016,08,16,01,56,17.10
2016,08,16,01,57,17.10
2016,08,16,01,58,17.00
2016,08,16,01,59,17.00
2016,08,16,02,00,17.00
2016,08,16,02,01,17.00
2016,08,16,02,02,17.00
2016,08,16,02,03,17.00
2016,08,16,02,04,17.00
2016,08,16,02,05,17.00
2016,08,16,02,06,17.00
2016,08,16,02,07,17.00
2016,08,16,02,08,16.90
2016,08,16,02,09,16.90
2016,08,16,02,10,16.90
2016,08,16,02,11,16.90
2016,08,16,02,12,16.90
2016,08,16,02,13,16.90
2016,08,16,02,14,16.90
2016,08,16,02,15,16.90
2016,08,16,02,16,16.80
2016,08,16,02,17,16.80
2016,08,16,02,18,16.80
2016,08,16,02,19,16.80
2016,08,16,02,20,16.80
2016,08,16,02,21,16.80
2016,08,16,02,22,16.80
2016,08,16,02,23,16.80
2016,08,16,02,24,16.80
2016,08,16,02,25,16.80
2016,08,16,02,26,16.80
2016,08,16,02,27,16.80
2016,08,16,02,28,16.80
2016,08,16,02,29,16.80
2016,08,16,02,30,16.80
2016,08,16,02,31,16.80
2016,08,16,02,32,16.80
2016,08,16,02,33,16.80
2016,08,16,02,34,16.80
2016,08,16,02,35,16.80
2016,08,16,02,36,16.80
2016,08,16,02,37,16.80
2016,08,16,02,38,16.80
2016,08,16,02,39,16.80
2016,08,16,02,40,16.80
2016,08,16,02,41,16.80
2016,08,16,02,42,16.80
2016,08,16,02,43,16.80
2016,08,16,02,44,16.80
2016,08,16,02,45,16.80
2016,08,16,02,46,16.80
2016,08,16,02,47,16.80
2016,08,16,02,48,16.80
2016,08,16,02,49,16.80
2016,08,16,02,50,16.80
2016,08,16,02,51,16.80
2016,08,16,02,52,16.70
2016,08,16,02,53,16.70
2016,08,16,02,54,16.70
2016,08,16,02,55,16.70
2016,08,16,02,56,16.70
2016,08,16,02,57,16.70
2016,08,16,02,58,16.70
2016,08,16,02,59,16.70
2016,08,16,03,00,16.70
2016,08,16,03,01,16.70
2016,08,16,03,02,16.70
2016,08,16,03,03,16.70
2016,08,16,03,04,16.70
2016,08,16,03,05,16.70
2016,08,16,03,06,16.70
2016,08,16,03,07,16.70
2016,08,16,03,08,16.70
2016,08,16,03,09,16.70
2016,08,16,03,10,16.70
2016,08,16,03,11,16.70
2016,08,16,03,12,16.60
2016,08,16,03,13,16.60
2016,08,16,03,14,16.60
2016,08,16,03,15,16.60
2016,08,16,03,16,16.60
2016,08,16,03,17,16.70
2016,08,16,03,18,16.60
2016,08,16,03,19,16.70
2016,08,16,03,20,16.70
2016,08,16,03,21,16.70
2016,08,16,03,22,16.70
2016,08,16,03,23,16.70
2016,08,16,03,24,16.70
2016,08,16,03,25,16.70
2016,08,16,03,26,16.70
2016,08,16,03,27,16.70
2016,08,16,03,28,16.70
2016,08,16,03,29,16.70
2016,08,16,03,30,16.70
2016,08,16,03,31,16.70
2016,08,16,03,32,16.70
2016,08,16,03,33,16.70
2016,08,16,03,34,16.70
2016,08,16,03,35,16.70
2016,08,16,03,36,16.70
2016,08,16,03,37,16.70
2016,08,16,03,38,16.60
2016,08,16,03,39,16.60
2016,08,16,03,40,16.60
2016,08,16,03,41,16.60
2016,08,16,03,42,16.60
2016,08,16,03,43,16.60
2016,08,16,03,44,16.50
2016,08,16,03,45,16.50
2016,08,16,03,46,16.50
2016,08,16,03,47,16.50
2016,08,16,03,48,16.50
2016,08,16,03,49,16.40
2016,08,16,03,50,16.40
2016,08,16,03,51,16.40
2016,08,16,03,52,16.40
2016,08,16,03,53,16.40
2016,08,16,03,54,16.40
2016,08,16,03,55,16.40
2016,08,16,03,56,16.40
2016,08,16,03,57,16.40
2016,08,16,03,58,16.40
2016,08,16,03,59,16.40
2016,08,16,04,00,16.40
2016,08,16,04,01,16.40
2016,08,16,04,02,16.40
2016,08,16,04,03,16.40
2016,08,16,04,04,16.40
2016,08,16,04,05,16.40
2016,08,16,04,06,16.30
2016,08,16,04,07,16.30
2016,08,16,04,08,16.30
2016,08,16,04,09,16.30
2016,08,16,04,10,16.30
2016,08,16,04,11,16.30
2016,08,16,04,12,16.30
2016,08,16,04,13,16.30
2016,08,16,04,14,16.30
2016,08,16,04,15,16.30
2016,08,16,04,16,16.30
2016,08,16,04,17,16.30
2016,08,16,04,18,16.30
2016,08,16,04,19,16.30
2016,08,16,04,20,16.30
2016,08,16,04,21,16.30
2016,08,16,04,22,16.30
2016,08,16,04,23,16.30
2016,08,16,04,24,16.30
2016,08,16,04,25,16.30
2016,08,16,04,26,16.30
2016,08,16,04,27,16.30
2016,08,16,04,28,16.30
2016,08,16,04,29,16.30
2016,08,16,04,30,16.30
2016,08,16,04,31,16.30
2016,08,16,04,32,16.30
2016,08,16,04,33,16.20
2016,08,16,04,34,16.20
2016,08,16,04,35,16.20
2016,08,16,04,36,16.20
2016,08,16,04,37,16.20
2016,08,16,04,38,16.20
2016,08,16,04,39,16.20
2016,08,16,04,40,16.20
2016,08,16,04,41,16.20
2016,08,16,04,42,16.20
2016,08,16,04,43,16.20
2016,08,16,04,44,16.20
2016,08,16,04,45,16.20
2016,08,16,04,46,16.10
2016,08,16,04,47,16.10
2016,08,16,04,48,16.10
2016,08,16,04,49,16.10
2016,08,16,04,50,16.10
2016,08,16,04,51,16.10
2016,08,16,04,52,16.10
2016,08,16,04,53,16.10
2016,08,16,04,54,16.20
2016,08,16,04,55,16.20
2016,08,16,04,56,16.20
2016,08,16,04,57,16.20
2016,08,16,04,58,16.20
2016,08,16,04,59,16.20
2016,08,16,05,00,16.20
2016,08,16,05,01,16.20
2016,08,16,05,02,16.20
2016,08,16,05,03,16.20
2016,08,16,05,04,16.20
2016,08,16,05,05,16.20
2016,08,16,05,06,16.20
2016,08,16,05,07,16.20
2016,08,16,05,08,16.20
2016,08,16,05,09,16.30
2016,08,16,05,10,16.30
2016,08,16,05,11,16.30
2016,08,16,05,12,16.30
2016,08,16,05,13,16.30
2016,08,16,05,14,16.30
2016,08,16,05,15,16.30
2016,08,16,05,16,16.30
2016,08,16,05,17,16.30
2016,08,16,05,18,16.30
2016,08,16,05,19,16.30
2016,08,16,05,20,16.30
2016,08,16,05,21,16.30
2016,08,16,05,22,16.30
2016,08,16,05,23,16.30
2016,08,16,05,24,16.30
2016,08,16,05,25,16.30
2016,08,16,05,26,16.30
2016,08,16,05,27,16.30
2016,08,16,05,28,16.30
2016,08,16,05,29,16.20
2016,08,16,05,30,16.20
2016,08,16,05,31,16.20
2016,08,16,05,32,16.20
2016,08,16,05,33,16.20
2016,08,16,05,34,16.20
2016,08,16,05,35,16.20
2016,08,16,05,36,16.20
2016,08,16,05,37,16.20
2016,08,16,05,38,16.20
2016,08,16,05,39,16.20
2016,08,16,05,40,16.20
2016,08,16,05,41,16.20
2016,08,16,05,42,16.20
2016,08,16,05,43,16.20
2016,08,16,05,44,16.20
2016,08,16,05,45,16.10
2016,08,16,05,46,16.10
2016,08,16,05,47,16.10
2016,08,16,05,48,16.10
2016,08,16,05,49,16.10
2016,08,16,05,50,16.10
2016,08,16,05,51,16.10
2016,08,16,05,52,16.10
2016,08,16,05,53,16.10
2016,08,16,05,54,16.10
2016,08,16,05,55,16.10
2016,08,16,05,56,16.10
2016,08,16,05,57,16.10
2016,08,16,05,58,16.10
2016,08,16,05,59,16.10
2016,08,16,06,00,16.10
2016,08,16,06,01,16.10
2016,08,16,06,02,16.10
2016,08,16,06,03,16.10
2016,08,16,06,04,16.10
2016,08,16,06,05,16.10
2016,08,16,06,06,16.10
2016,08,16,06,07,16.10
2016,08,16,06,08,16.10
2016,08,16,06,09,16.00
2016,08,16,06,10,16.10
2016,08,16,06,11,16.00
2016,08,16,06,12,16.00
2016,08,16,06,13,16.00
2016,08,16,06,14,16.00
2016,08,16,06,15,16.00
2016,08,16,06,16,16.10
2016,08,16,06,17,16.10
2016,08,16,06,18,16.00
2016,08,16,06,19,16.00
2016,08,16,06,20,16.00
2016,08,16,06,21,16.00
2016,08,16,06,22,16.00
2016,08,16,06,23,16.00
2016,08,16,06,24,16.00
2016,08,16,06,25,16.00
2016,08,16,06,26,16.00
2016,08,16,06,27,16.00
2016,08,16,06,28,16.00
2016,08,16,06,29,16.00
2016,08,16,06,30,16.00
2016,08,16,06,31,16.00
2016,08,16,06,32,16.00
2016,08,16,06,33,16.00
2016,08,16,06,34,16.10
2016,08,16,06,35,16.10
2016,08,16,06,36,16.10
2016,08,16,06,37,16.10
2016,08,16,06,38,16.10
2016,08,16,06,39,16.10
2016,08,16,06,40,16.10
2016,08,16,06,41,16.20
2016,08,16,06,42,16.20
2016,08,16,06,43,16.20
2016,08,16,06,44,16.20
2016,08,16,06,45,16.20
2016,08,16,06,46,16.20
2016,08,16,06,47,16.20
2016,08,16,06,48,16.20
2016,08,16,06,49,16.20
2016,08,16,06,50,16.30
2016,08,16,06,51,16.30
2016,08,16,06,52,16.30
2016,08,16,06,53,16.30
2016,08,16,06,54,16.30
2016,08,16,06,55,16.30
2016,08,16,06,56,16.30
2016,08,16,06,57,16.30
2016,08,16,06,58,16.30
2016,08,16,06,59,16.30
2016,08,16,07,00,16.30
2016,08,16,07,01,16.30
2016,08,16,07,02,16.40
2016,08,16,07,03,16.40
2016,08,16,07,04,16.40
2016,08,16,07,05,16.40
2016,08,16,07,06,16.40
2016,08,16,07,07,16.50
2016,08,16,07,08,16.50
2016,08,16,07,09,16.50
2016,08,16,07,10,16.60
2016,08,16,07,11,16.60
2016,08,16,07,12,16.60
2016,08,16,07,13,16.60
2016,08,16,07,14,16.70
2016,08,16,07,15,16.70
2016,08,16,07,16,16.70
2016,08,16,07,17,16.70
2016,08,16,07,18,16.70
2016,08,16,07,19,16.80
2016,08,16,07,20,16.80
2016,08,16,07,21,16.80
2016,08,16,07,22,16.80
2016,08,16,07,23,16.90
2016,08,16,07,24,16.90
2016,08,16,07,25,16.90
2016,08,16,07,26,16.90
2016,08,16,07,27,17.00
2016,08,16,07,28,17.00
2016,08,16,07,29,17.10
2016,08,16,07,30,17.10
2016,08,16,07,31,17.10
2016,08,16,07,32,17.10
2016,08,16,07,33,17.10
2016,08,16,07,34,17.10
2016,08,16,07,35,17.10
2016,08,16,07,36,17.20
2016,08,16,07,37,17.20
2016,08,16,07,38,17.20
2016,08,16,07,39,17.20
2016,08,16,07,40,17.20
2016,08,16,07,41,17.20
2016,08,16,07,42,17.20
2016,08,16,07,43,17.30
2016,08,16,07,44,17.30
2016,08,16,07,45,17.30
2016,08,16,07,46,17.30
2016,08,16,07,47,17.30
2016,08,16,07,48,17.30
2016,08,16,07,49,17.40
2016,08,16,07,50,17.40
2016,08,16,07,51,17.40
2016,08,16,07,52,17.40
2016,08,16,07,53,17.40
2016,08,16,07,54,17.40
2016,08,16,07,55,17.40
2016,08,16,07,56,17.40
2016,08,16,07,57,17.50
2016,08,16,07,58,17.50
2016,08,16,07,59,17.50
2016,08,16,08,00,17.60
2016,08,16,08,01,17.60
2016,08,16,08,02,17.60
2016,08,16,08,03,17.60
2016,08,16,08,04,17.60
2016,08,16,08,05,17.70
2016,08,16,08,06,17.70
2016,08,16,08,07,17.70
2016,08,16,08,08,17.70
2016,08,16,08,09,17.70
2016,08,16,08,10,17.80
2016,08,16,08,11,17.80
2016,08,16,08,12,17.80
2016,08,16,08,13,17.90
2016,08,16,08,14,17.90
2016,08,16,08,15,17.90
2016,08,16,08,16,17.90
2016,08,16,08,17,18.00
2016,08,16,08,18,18.00
2016,08,16,08,19,18.00
2016,08,16,08,20,18.00
2016,08,16,08,21,18.00
2016,08,16,08,22,18.00
2016,08,16,08,23,18.00
2016,08,16,08,24,18.10
2016,08,16,08,25,18.10
2016,08,16,08,26,18.10
2016,08,16,08,27,18.10
2016,08,16,08,28,18.10
2016,08,16,08,29,18.10
2016,08,16,08,30,18.10
2016,08,16,08,31,18.10
2016,08,16,08,32,18.10
2016,08,16,08,33,18.10
2016,08,16,08,34,18.20
2016,08,16,08,35,18.20
2016,08,16,08,36,18.20
2016,08,16,08,37,18.20
2016,08,16,08,38,18.20
2016,08,16,08,39,18.30
2016,08,16,08,40,18.30
2016,08,16,08,41,18.30
2016,08,16,08,42,18.30
2016,08,16,08,43,18.40
2016,08,16,08,44,18.40
2016,08,16,08,45,18.40
2016,08,16,08,46,18.40
2016,08,16,08,47,18.40
2016,08,16,08,48,18.40
2016,08,16,08,49,18.40
2016,08,16,08,50,18.40
2016,08,16,08,51,18.50
2016,08,16,08,52,18.50
2016,08,16,08,53,18.50
2016,08,16,08,54,18.50
2016,08,16,08,55,18.50
2016,08,16,08,56,18.50
2016,08,16,08,57,18.60
2016,08,16,08,58,18.60
2016,08,16,08,59,18.60
2016,08,16,09,00,18.70
2016,08,16,09,01,18.70
2016,08,16,09,02,18.70
2016,08,16,09,03,18.70
2016,08,16,09,04,18.70
2016,08,16,09,05,18.70
2016,08,16,09,06,18.70
2016,08,16,09,07,18.70
2016,08,16,09,08,18.80
2016,08,16,09,09,18.80
2016,08,16,09,10,18.80
2016,08,16,09,11,18.90
2016,08,16,09,12,18.90
2016,08,16,09,13,19.00
2016,08,16,09,14,19.10
2016,08,16,09,15,19.10
2016,08,16,09,16,19.10
2016,08,16,09,17,19.10
2016,08,16,09,18,19.10
2016,08,16,09,19,19.10
2016,08,16,09,20,19.20
2016,08,16,09,21,19.20
2016,08,16,09,22,19.20
2016,08,16,09,23,19.30
2016,08,16,09,24,19.30
2016,08,16,09,25,19.30
2016,08,16,09,26,19.40
2016,08,16,09,27,19.40
2016,08,16,09,28,19.50
2016,08,16,09,29,19.50
2016,08,16,09,30,19.50
2016,08,16,09,31,19.60
2016,08,16,09,32,19.60
2016,08,16,09,33,19.60
2016,08,16,09,34,19.60
2016,08,16,09,35,19.60
2016,08,16,09,36,19.60
2016,08,16,09,37,19.60
2016,08,16,09,38,19.70
2016,08,16,09,39,19.70
2016,08,16,09,40,19.70
2016,08,16,09,41,19.70
2016,08,16,09,42,19.80
2016,08,16,09,43,19.70
2016,08,16,09,44,19.80
2016,08,16,09,45,19.70
2016,08,16,09,46,19.70
2016,08,16,09,47,19.70
2016,08,16,09,48,19.70
2016,08,16,09,49,19.80
2016,08,16,09,50,19.80
2016,08,16,09,51,19.80
2016,08,16,09,52,19.80
2016,08,16,09,53,19.80
2016,08,16,09,54,19.80
2016,08,16,09,55,19.80
2016,08,16,09,56,19.80
2016,08,16,09,57,19.90
2016,08,16,09,58,20.00
2016,08,16,09,59,20.00
2016,08,16,10,00,20.00
2016,08,16,10,01,20.00
2016,08,16,10,02,20.10
2016,08,16,10,03,20.00
2016,08,16,10,04,20.00
2016,08,16,10,05,20.00
2016,08,16,10,06,20.00
2016,08,16,10,07,20.10
2016,08,16,10,08,20.10
2016,08,16,10,09,20.10
2016,08,16,10,10,20.10
2016,08,16,10,11,20.10
2016,08,16,10,12,20.10
2016,08,16,10,13,20.10
2016,08,16,10,14,20.20
2016,08,16,10,15,20.20
2016,08,16,10,16,20.20
2016,08,16,10,17,20.30
2016,08,16,10,18,20.30
2016,08,16,10,19,20.30
2016,08,16,10,20,20.40
2016,08,16,10,21,20.40
2016,08,16,10,22,20.40
2016,08,16,10,23,20.40
2016,08,16,10,24,20.40
2016,08,16,10,25,20.40
2016,08,16,10,26,20.40
2016,08,16,10,27,20.40
2016,08,16,10,28,20.50
2016,08,16,10,29,20.40
2016,08,16,10,30,20.50
2016,08,16,10,31,20.50
2016,08,16,10,32,20.50
2016,08,16,10,33,20.50
2016,08,16,10,34,20.60
2016,08,16,10,35,20.60
2016,08,16,10,36,20.60
2016,08,16,10,37,20.60
2016,08,16,10,38,20.60
2016,08,16,10,39,20.60
2016,08,16,10,40,20.70
2016,08,16,10,41,20.70
2016,08,16,10,42,20.70
2016,08,16,10,43,20.70
2016,08,16,10,44,20.70
2016,08,16,10,45,20.70
2016,08,16,10,46,20.70
2016,08,16,10,47,20.80
2016,08,16,10,48,20.80
2016,08,16,10,49,20.80
2016,08,16,10,50,20.80
2016,08,16,10,51,20.80
2016,08,16,10,52,20.80
2016,08,16,10,53,20.80
2016,08,16,10,54,20.80
2016,08,16,10,55,20.80
2016,08,16,10,56,20.80
2016,08,16,10,57,20.80
2016,08,16,10,58,20.80
2016,08,16,10,59,20.80
2016,08,16,11,00,20.80
2016,08,16,11,01,20.80
2016,08,16,11,02,20.80
2016,08,16,11,03,20.80
2016,08,16,11,04,20.80
2016,08,16,11,05,20.90
2016,08,16,11,06,20.90
2016,08,16,11,07,20.90
2016,08,16,11,08,20.90
2016,08,16,11,09,20.90
2016,08,16,11,10,20.90
2016,08,16,11,11,20.90
2016,08,16,11,12,20.90
2016,08,16,11,13,20.90
2016,08,16,11,14,20.90
2016,08,16,11,15,20.90
2016,08,16,11,16,21.00
2016,08,16,11,17,21.00
2016,08,16,11,18,21.00
2016,08,16,11,19,21.10
2016,08,16,11,20,21.10
2016,08,16,11,21,21.10
2016,08,16,11,22,21.10
2016,08,16,11,23,21.20
2016,08,16,11,24,21.20
2016,08,16,11,25,21.20
2016,08,16,11,26,21.30
2016,08,16,11,27,21.30
2016,08,16,11,28,21.30
2016,08,16,11,29,21.30
2016,08,16,11,30,21.20
2016,08,16,11,31,21.20
2016,08,16,11,32,21.20
2016,08,16,11,33,21.30
2016,08,16,11,34,21.30
2016,08,16,11,35,21.40
2016,08,16,11,36,21.50
2016,08,16,11,37,21.50
2016,08,16,11,38,21.60
2016,08,16,11,39,21.70
2016,08,16,11,40,21.70
2016,08,16,11,41,21.70
2016,08,16,11,42,21.70
2016,08,16,11,43,21.70
2016,08,16,11,44,21.70
2016,08,16,11,45,21.70
2016,08,16,11,46,21.70
2016,08,16,11,47,21.70
2016,08,16,11,48,21.70
2016,08,16,11,49,21.70
2016,08,16,11,50,21.80
2016,08,16,11,51,21.80
2016,08,16,11,52,21.80
2016,08,16,11,53,21.90
2016,08,16,11,54,21.90
2016,08,16,11,55,21.90
2016,08,16,11,56,21.90
2016,08,16,11,57,21.90
2016,08,16,11,58,21.90
2016,08,16,11,59,22.00
2016,08,16,12,00,22.00
2016,08,16,12,01,22.00
2016,08,16,12,02,21.90
2016,08,16,12,03,21.90
2016,08,16,12,04,21.90
2016,08,16,12,05,21.90
2016,08,16,12,06,22.00
2016,08,16,12,07,22.10
2016,08,16,12,08,22.10
2016,08,16,12,09,22.10
2016,08,16,12,10,22.10
2016,08,16,12,11,22.20
2016,08,16,12,12,22.20
2016,08,16,12,13,22.20
2016,08,16,12,14,22.20
2016,08,16,12,15,22.20
2016,08,16,12,16,22.20
2016,08,16,12,17,22.20
2016,08,16,12,18,22.20
2016,08,16,12,19,22.30
2016,08,16,12,20,22.30
2016,08,16,12,21,22.30
2016,08,16,12,22,22.30
2016,08,16,12,23,22.30
2016,08,16,12,24,22.40
2016,08,16,12,25,22.40
2016,08,16,12,26,22.30
2016,08,16,12,27,22.30
2016,08,16,12,28,22.30
2016,08,16,12,29,22.30
2016,08,16,12,30,22.30
2016,08,16,12,31,22.40
2016,08,16,12,32,22.40
2016,08,16,12,33,22.40
2016,08,16,12,34,22.40
2016,08,16,12,35,22.50
2016,08,16,12,36,22.50
2016,08,16,12,37,22.70
2016,08,16,12,38,22.70
2016,08,16,12,39,22.70
2016,08,16,12,40,22.70
2016,08,16,12,41,22.70
2016,08,16,12,42,22.70
2016,08,16,12,43,22.80
2016,08,16,12,44,22.80
2016,08,16,12,45,22.90
2016,08,16,12,46,22.90
2016,08,16,12,47,22.90
2016,08,16,12,48,22.90
2016,08,16,12,49,23.00
2016,08,16,12,50,23.00
2016,08,16,12,51,23.00
2016,08,16,12,52,23.00
2016,08,16,12,53,23.10
2016,08,16,12,54,23.00
2016,08,16,12,55,23.00
2016,08,16,12,56,22.90
2016,08,16,12,57,22.90
2016,08,16,12,58,22.80
2016,08,16,12,59,22.80
2016,08,16,13,00,22.80
2016,08,16,13,01,22.90
2016,08,16,13,02,22.90
2016,08,16,13,03,23.00
2016,08,16,13,04,23.10
2016,08,16,13,05,23.10
2016,08,16,13,06,23.10
2016,08,16,13,07,23.20
2016,08,16,13,08,23.20
2016,08,16,13,09,23.20
2016,08,16,13,10,23.20
2016,08,16,13,11,23.20
2016,08,16,13,12,23.20
2016,08,16,13,13,23.20
2016,08,16,13,14,23.20
2016,08,16,13,15,23.20
2016,08,16,13,16,23.20
2016,08,16,13,17,23.10
2016,08,16,13,18,23.10
2016,08,16,13,19,23.20
2016,08,16,13,20,23.20
2016,08,16,13,21,23.20
2016,08,16,13,22,23.30
2016,08,16,13,23,23.40
2016,08,16,13,24,23.50
2016,08,16,13,25,23.60
2016,08,16,13,26,23.70
2016,08,16,13,27,23.70
2016,08,16,13,28,23.70
2016,08,16,13,29,23.70
2016,08,16,13,30,23.70
2016,08,16,13,31,23.70
2016,08,16,13,32,23.70
2016,08,16,13,33,23.70
2016,08,16,13,34,23.70
2016,08,16,13,35,23.70
2016,08,16,13,36,23.80
2016,08,16,13,37,23.80
2016,08,16,13,38,23.80
2016,08,16,13,39,23.80
2016,08,16,13,40,23.80
2016,08,16,13,41,23.80
2016,08,16,13,42,23.90
2016,08,16,13,43,23.90
2016,08,16,13,44,23.90
2016,08,16,13,45,23.90
2016,08,16,13,46,23.90
2016,08,16,13,47,23.90
2016,08,16,13,48,24.00
2016,08,16,13,49,24.00
2016,08,16,13,50,24.10
2016,08,16,13,51,24.20
2016,08,16,13,52,24.20
2016,08,16,13,53,24.30
2016,08,16,13,54,24.30
2016,08,16,13,55,24.30
2016,08,16,13,56,24.30
2016,08,16,13,57,24.30
2016,08,16,13,58,24.30
2016,08,16,13,59,24.30
2016,08,16,14,00,24.30
2016,08,16,14,01,24.30
2016,08,16,14,02,24.30
2016,08,16,14,03,24.30
2016,08,16,14,04,24.30
2016,08,16,14,05,24.30
2016,08,16,14,06,24.30
2016,08,16,14,07,24.30
2016,08,16,14,08,24.30
2016,08,16,14,09,24.30
2016,08,16,14,10,24.30
2016,08,16,14,11,24.30
2016,08,16,14,12,24.30
2016,08,16,14,13,24.30
2016,08,16,14,14,24.30
2016,08,16,14,15,24.30
2016,08,16,14,16,24.30
2016,08,16,14,17,24.30
2016,08,16,14,18,24.30
2016,08,16,14,19,24.30
2016,08,16,20,50,18.70
2016,08,16,20,51,18.70
2016,08,16,20,52,18.60
2016,08,16,20,53,18.60
2016,08,16,20,54,18.60
2016,08,16,20,55,18.60
2016,08,16,20,56,18.50
2016,08,16,20,57,18.50
2016,08,16,20,58,18.50
2016,08,16,20,59,18.40
2016,08,16,21,00,18.40
2016,08,16,21,01,18.40
2016,08,16,21,02,18.30
2016,08,16,21,03,18.30
2016,08,16,21,04,18.30
2016,08,16,21,05,18.30
2016,08,16,21,06,18.30
2016,08,16,21,07,18.20
2016,08,16,21,08,18.20
2016,08,16,21,09,18.20
2016,08,16,21,10,18.20
2016,08,16,21,11,18.20
2016,08,16,21,12,18.20
2016,08,16,21,13,18.20
2016,08,16,21,14,18.20
2016,08,16,21,15,18.20
2016,08,16,21,16,18.20
2016,08,16,21,17,18.20
2016,08,16,21,18,18.20
2016,08,16,21,19,18.20
2016,08,16,21,20,18.20
2016,08,16,21,21,18.20
2016,08,16,21,22,18.10
2016,08,16,21,23,18.20
2016,08,16,21,24,18.20
2016,08,16,21,25,18.20
2016,08,16,21,26,18.20
2016,08,16,21,27,18.10
2016,08,16,21,28,18.20
2016,08,16,21,29,18.20
2016,08,16,21,30,18.20
2016,08,16,21,31,18.20
2016,08,16,21,32,18.20
2016,08,16,21,33,18.20
2016,08,16,21,34,18.20
2016,08,16,21,35,18.20
2016,08,16,21,36,18.20
2016,08,16,21,37,18.20
2016,08,16,21,38,18.20
2016,08,16,21,39,18.20
2016,08,16,21,40,18.20
2016,08,16,21,41,18.20
2016,08,16,21,42,18.20
2016,08,16,21,43,18.20
2016,08,16,21,44,18.20
2016,08,16,21,45,18.20
2016,08,16,21,46,18.20
2016,08,16,21,47,18.20
2016,08,16,21,48,18.20
2016,08,16,21,49,18.20
2016,08,16,21,50,18.20
2016,08,16,21,51,18.20
2016,08,16,21,52,18.20
2016,08,16,21,53,18.20
2016,08,16,21,54,18.20
2016,08,16,21,55,18.20
2016,08,16,21,56,18.20
2016,08,16,21,57,18.20
2016,08,16,21,58,18.20
2016,08,16,21,59,18.20
2016,08,16,22,00,18.20
2016,08,16,22,01,18.10
2016,08,16,22,02,18.10
2016,08,16,22,03,18.10
2016,08,16,22,04,18.10
2016,08,16,22,05,18.10
2016,08,16,22,06,18.10
2016,08,16,22,07,18.10
2016,08,16,22,08,18.10
2016,08,16,22,09,18.10
2016,08,16,22,10,18.00
2016,08,16,22,11,18.00
2016,08,16,22,12,18.00
2016,08,16,22,13,18.00
2016,08,16,22,14,18.00
2016,08,16,22,15,18.00
2016,08,16,22,16,18.00
2016,08,16,22,17,17.90
2016,08,16,22,18,17.90
2016,08,16,22,19,17.90
2016,08,16,22,20,17.90
2016,08,16,22,21,17.90
2016,08,16,22,22,17.90
2016,08,16,22,23,17.90
2016,08,16,22,24,17.90
2016,08,16,22,25,17.90
2016,08,16,22,26,17.80
2016,08,16,22,27,17.80
2016,08,16,22,28,17.80
2016,08,16,22,29,17.80
2016,08,16,22,30,17.80
2016,08,16,22,31,17.80
2016,08,16,22,32,17.80
2016,08,16,22,33,17.80
2016,08,16,22,34,17.80
2016,08,16,22,35,17.70
2016,08,16,22,36,17.70
2016,08,16,22,37,17.70
2016,08,16,22,38,17.70
2016,08,16,22,39,17.70
2016,08,16,22,40,17.60
2016,08,16,22,41,17.60
2016,08,16,22,42,17.60
2016,08,16,22,43,17.60
2016,08,16,22,44,17.50
2016,08,16,22,45,17.50
2016,08,16,22,46,17.50
2016,08,16,22,47,17.50
2016,08,16,22,48,17.50
2016,08,16,22,49,17.50
2016,08,16,22,50,17.60
2016,08,16,22,51,17.60
2016,08,16,22,52,17.60
2016,08,16,22,53,17.60
2016,08,16,22,54,17.60
2016,08,16,22,55,17.60
2016,08,16,22,56,17.60
2016,08,16,22,57,17.60
2016,08,16,22,58,17.60
2016,08,16,22,59,17.60
2016,08,16,23,00,17.60
2016,08,16,23,01,17.60
2016,08,16,23,02,17.60
2016,08,16,23,03,17.60
2016,08,16,23,04,17.60
2016,08,16,23,05,17.60
2016,08,16,23,06,17.60
2016,08,16,23,07,17.60
2016,08,16,23,08,17.60
2016,08,16,23,09,17.60
2016,08,16,23,10,17.60
2016,08,16,23,11,17.60
2016,08,16,23,12,17.60
2016,08,16,23,13,17.60
2016,08,16,23,14,17.60
2016,08,16,23,15,17.60
2016,08,16,23,16,17.60
2016,08,16,23,17,17.60
2016,08,16,23,18,17.60
2016,08,16,23,19,17.60
2016,08,16,23,20,17.60
2016,08,16,23,21,17.60
2016,08,16,23,22,17.60
2016,08,16,23,23,17.60
2016,08,16,23,24,17.60
2016,08,16,23,25,17.60
2016,08,16,23,26,17.70
2016,08,16,23,27,17.70
2016,08,16,23,28,17.60
2016,08,16,23,29,17.70
2016,08,16,23,30,17.70
2016,08,16,23,31,17.70
2016,08,16,23,32,17.70
2016,08,16,23,33,17.60
2016,08,16,23,34,17.60
2016,08,16,23,35,17.60
2016,08,16,23,36,17.60
2016,08,16,23,37,17.60
2016,08,16,23,38,17.60
2016,08,16,23,39,17.60
2016,08,16,23,40,17.60
2016,08,16,23,41,17.60
2016,08,16,23,42,17.60
2016,08,16,23,43,17.60
2016,08,16,23,44,17.60
2016,08,16,23,45,17.60
2016,08,16,23,46,17.60
2016,08,16,23,47,17.60
2016,08,16,23,48,17.50
2016,08,16,23,49,17.50